CZ-6A DEB, 61100

Orbit data source: Space-Track

CZ-6A DEB, 61100 is space debris in LEO originally from a launch on Tue, 06 Aug 2024 UTC launched from the Taiyaun Space Center, China (TSC). Debris objects in space refer to the collection of defunct objects orbiting the Earth. Examples of debris include non-operational satellites, rocket bodies, and fragments generated from explosions, collisions, or faulty payload assembly.

Loading next visibility...
Identifier
61100, 2024-140NS
Orbit
LEO
Country
Flag of CNCN / PRC
Related business
Manufacturer
SAST
Mission
Spacecraft
Bus & Motor
Unknown
Mass
Unknown
Launch date (UTC)
2024-08-06 (2 years ago)
Launch vehicle
Unknown
Launch site
Taiyaun Space Center, China (TSC)
Object type
Payload
Rocket body
Debris
Shape & HBR
Unknown shape, 0.1 m
Radar Cross Section
Medium (>0.1 m² and <1 m²)

Expand to show TLE details & history
Last TLE update: 14 hours ago

TLE from 14 hours ago
0 CZ-6A DEB
1 61100U 24140NS  26171.28357345  .00000877  00000-0  18057-3 0  9999
2 61100  89.0372 272.9726 0109440 252.5721 106.3501 14.55971733 96068
Epoch: 2026-06-20T06:48Z
TLE epoch observation values (Epoch: 2026-06-20T06:48:20.746Z)
Latitude
0.00003°
Longitude
-97.61426°
Altitude
731.924 km
Speed
7.477 km/s
True Right ascension
18h 11m 53s
True Declination
0° 00' 00"
Sunlit
Object was in full shadow at epoch
Visualization orbit readout
Latitude
Unknown
Longitude
Unknown
Altitude
Unknown
Speed
Unknown
Apparent Right ascension
Unknown
Apparent Declination
Unknown
Sunlit
N/A
Visualization observer readout
Local Sidereal Time
07:24:32
Azimuth
Unknown
Elevation
Unknown
Doppler factor
Unknown
Orbital elements
Apogee altitude
780.607 km
Perigee altitude
625.613 km
Semi-major axis
7,081.247 km
Eccentricity
0.01094
Inclination
89.0372°
RAAN
272.9726°
Arg. of periapsis
252.5721°
True anomaly
107.54877°
Mean anomaly
106.3501°
Eccentric anomaly
106.94991°
Mean motion
3.64232 °/min
Orbital period
98.84 mins
BSTAR
0.00018057
Loading maneuver chart data...
Computing Atmospheric mass density...
Loading historical data...
Loading historical data...
Loading historical data...
Loading historical data...
Loading historical data...
Loading historical data...
Loading historical data...

Documentation

Showing up to 5 results
|